Year,Month,Day,Hour,Minute,Value (Times are PST for temperature in C)
2012,01,27,00,00,0.30
2012,01,27,00,01,0.30
2012,01,27,00,02,0.30
2012,01,27,00,03,0.20
2012,01,27,00,04,0.20
2012,01,27,00,05,0.20
2012,01,27,00,06,0.20
2012,01,27,00,07,0.10
2012,01,27,00,08,0.20
2012,01,27,00,09,0.20
2012,01,27,00,10,0.20
2012,01,27,00,11,0.20
2012,01,27,00,12,0.20
2012,01,27,00,13,0.10
2012,01,27,00,14,0.10
2012,01,27,00,15,0.10
2012,01,27,00,16,0.10
2012,01,27,00,17,0.10
2012,01,27,00,18,0.10
2012,01,27,00,19,0.10
2012,01,27,00,20,0.10
2012,01,27,00,21,0.10
2012,01,27,00,22,0.10
2012,01,27,00,23,0.10
2012,01,27,00,24,0.10
2012,01,27,00,25,0.00
2012,01,27,00,26,-0.10
2012,01,27,00,27,-0.10
2012,01,27,00,28,-0.10
2012,01,27,00,29,-0.10
2012,01,27,00,30,-0.10
2012,01,27,00,31,-0.10
2012,01,27,00,32,-0.20
2012,01,27,00,33,-0.20
2012,01,27,00,34,-0.20
2012,01,27,00,35,-0.20
2012,01,27,00,36,-0.30
2012,01,27,00,37,-0.30
2012,01,27,00,38,-0.40
2012,01,27,00,39,-0.40
2012,01,27,00,40,-0.40
2012,01,27,00,41,-0.40
2012,01,27,00,42,-0.30
2012,01,27,00,43,-0.30
2012,01,27,00,44,-0.30
2012,01,27,00,45,-0.30
2012,01,27,00,46,-0.30
2012,01,27,00,47,-0.30
2012,01,27,00,48,-0.30
2012,01,27,00,49,-0.40
2012,01,27,00,50,-0.40
2012,01,27,00,51,-0.40
2012,01,27,00,52,-0.40
2012,01,27,00,53,-0.40
2012,01,27,00,54,-0.40
2012,01,27,00,55,-0.40
2012,01,27,00,56,-0.40
2012,01,27,00,57,-0.40
2012,01,27,00,58,-0.40
2012,01,27,00,59,-0.40
2012,01,27,01,00,-0.40
2012,01,27,01,01,-0.40
2012,01,27,01,02,-0.50
2012,01,27,01,03,-0.60
2012,01,27,01,04,-0.60
2012,01,27,01,05,-0.60
2012,01,27,01,06,-0.60
2012,01,27,01,07,-0.60
2012,01,27,01,08,-0.60
2012,01,27,01,09,-0.60
2012,01,27,01,10,-0.60
2012,01,27,01,11,-0.70
2012,01,27,01,12,-0.70
2012,01,27,01,13,-0.70
2012,01,27,01,14,-0.70
2012,01,27,01,15,-0.70
2012,01,27,01,16,-0.70
2012,01,27,01,17,-0.70
2012,01,27,01,18,-0.80
2012,01,27,01,19,-0.80
2012,01,27,01,20,-0.90
2012,01,27,01,21,-0.90
2012,01,27,01,22,-0.90
2012,01,27,01,23,-0.90
2012,01,27,01,24,-0.90
2012,01,27,01,25,-0.90
2012,01,27,01,26,-1.00
2012,01,27,01,27,-1.10
2012,01,27,01,28,-1.10
2012,01,27,01,29,-1.10
2012,01,27,01,30,-1.10
2012,01,27,01,31,-1.10
2012,01,27,01,32,-1.10
2012,01,27,01,33,-1.10
2012,01,27,01,34,-1.10
2012,01,27,01,35,-1.10
2012,01,27,01,36,-1.10
2012,01,27,01,37,-1.10
2012,01,27,01,38,-1.10
2012,01,27,01,39,-1.10
2012,01,27,01,40,-1.10
2012,01,27,01,41,-1.10
2012,01,27,01,42,-1.10
2012,01,27,01,43,-1.10
2012,01,27,01,44,-1.20
2012,01,27,01,45,-1.20
2012,01,27,01,46,-1.20
2012,01,27,01,47,-1.20
2012,01,27,01,48,-1.20
2012,01,27,01,49,-1.20
2012,01,27,01,50,-1.20
2012,01,27,01,51,-1.30
2012,01,27,01,52,-1.30
2012,01,27,01,53,-1.30
2012,01,27,01,54,-1.30
2012,01,27,01,55,-1.40
2012,01,27,01,56,-1.40
2012,01,27,01,57,-1.40
2012,01,27,01,58,-1.40
2012,01,27,01,59,-1.40
2012,01,27,02,00,-1.50
2012,01,27,02,01,-1.50
2012,01,27,02,02,-1.50
2012,01,27,02,03,-1.50
2012,01,27,02,04,-1.60
2012,01,27,02,05,-1.60
2012,01,27,02,06,-1.50
2012,01,27,02,07,-1.50
2012,01,27,02,08,-1.50
2012,01,27,02,09,-1.50
2012,01,27,02,10,-1.50
2012,01,27,02,11,-1.50
2012,01,27,02,12,-1.50
2012,01,27,02,13,-1.40
2012,01,27,02,14,-1.40
2012,01,27,02,15,-1.40
2012,01,27,02,16,-1.40
2012,01,27,02,17,-1.40
2012,01,27,02,18,-1.40
2012,01,27,02,19,-1.50
2012,01,27,02,20,-1.50
2012,01,27,02,21,-1.50
2012,01,27,02,22,-1.50
2012,01,27,02,23,-1.60
2012,01,27,02,24,-1.60
2012,01,27,02,25,-1.60
2012,01,27,02,26,-1.70
2012,01,27,02,27,-1.70
2012,01,27,02,28,-1.70
2012,01,27,02,29,-1.70
2012,01,27,02,30,-1.70
2012,01,27,02,31,-1.70
2012,01,27,02,32,-1.70
2012,01,27,02,33,-1.70
2012,01,27,02,34,-1.70
2012,01,27,02,35,-1.70
2012,01,27,02,36,-1.70
2012,01,27,02,37,-1.70
2012,01,27,02,38,-1.70
2012,01,27,02,39,-1.70
2012,01,27,02,40,-1.70
2012,01,27,02,41,-1.70
2012,01,27,02,42,-1.70
2012,01,27,02,43,-1.70
2012,01,27,02,44,-1.70
2012,01,27,02,45,-1.70
2012,01,27,02,46,-1.70
2012,01,27,02,47,-1.70
2012,01,27,02,48,-1.70
2012,01,27,02,49,-1.70
2012,01,27,02,50,-1.70
2012,01,27,02,51,-1.60
2012,01,27,02,52,-1.60
2012,01,27,02,53,-1.60
2012,01,27,02,54,-1.50
2012,01,27,02,55,-1.50
2012,01,27,02,56,-1.50
2012,01,27,02,57,-1.50
2012,01,27,02,58,-1.50
2012,01,27,02,59,-1.40
2012,01,27,03,00,-1.40
2012,01,27,03,01,-1.50
2012,01,27,03,02,-1.50
2012,01,27,03,03,-1.50
2012,01,27,03,04,-1.50
2012,01,27,03,05,-1.50
2012,01,27,03,06,-1.50
2012,01,27,03,07,-1.50
2012,01,27,03,08,-1.50
2012,01,27,03,09,-1.50
2012,01,27,03,10,-1.50
2012,01,27,03,11,-1.50
2012,01,27,03,12,-1.50
2012,01,27,03,13,-1.50
2012,01,27,03,14,-1.50
2012,01,27,03,15,-1.60
2012,01,27,03,16,-1.60
2012,01,27,03,17,-1.60
2012,01,27,03,18,-1.60
2012,01,27,03,19,-1.60
2012,01,27,03,20,-1.60
2012,01,27,03,21,-1.60
2012,01,27,03,22,-1.60
2012,01,27,03,23,-1.60
2012,01,27,03,24,-1.50
2012,01,27,03,25,-1.50
2012,01,27,03,26,-1.50
2012,01,27,03,27,-1.50
2012,01,27,03,28,-1.40
2012,01,27,03,29,-1.40
2012,01,27,03,30,-1.40
2012,01,27,03,31,-1.40
2012,01,27,03,32,-1.40
2012,01,27,03,33,-1.40
2012,01,27,03,34,-1.40
2012,01,27,03,35,-1.30
2012,01,27,03,36,-1.30
2012,01,27,03,37,-1.30
2012,01,27,03,38,-1.20
2012,01,27,03,39,-1.20
2012,01,27,03,40,-1.20
2012,01,27,03,41,-1.20
2012,01,27,03,42,-1.20
2012,01,27,03,43,-1.20
2012,01,27,03,44,-1.10
2012,01,27,03,45,-1.10
2012,01,27,03,46,-1.10
2012,01,27,03,47,-1.10
2012,01,27,03,48,-1.10
2012,01,27,03,49,-1.10
2012,01,27,03,50,-1.10
2012,01,27,03,51,-1.10
2012,01,27,03,52,-1.10
2012,01,27,03,53,-1.10
2012,01,27,03,54,-1.00
2012,01,27,03,55,-0.90
2012,01,27,03,56,-0.90
2012,01,27,03,57,-0.90
2012,01,27,03,58,-1.00
2012,01,27,03,59,-1.10
2012,01,27,04,00,-1.10
2012,01,27,04,01,-1.00
2012,01,27,04,02,-0.90
2012,01,27,04,03,-0.90
2012,01,27,04,04,-0.90
2012,01,27,04,05,-0.90
2012,01,27,04,06,-0.90
2012,01,27,04,07,-0.90
2012,01,27,04,08,-0.90
2012,01,27,04,09,-0.90
2012,01,27,04,10,-0.90
2012,01,27,04,11,-0.90
2012,01,27,04,12,-0.90
2012,01,27,04,13,-0.90
2012,01,27,04,14,-1.00
2012,01,27,04,15,-1.10
2012,01,27,04,16,-1.10
2012,01,27,04,17,-1.10
2012,01,27,04,18,-1.10
2012,01,27,04,19,-1.10
2012,01,27,04,20,-1.10
2012,01,27,04,21,-1.00
2012,01,27,04,22,-1.00
2012,01,27,04,23,-0.90
2012,01,27,04,24,-1.00
2012,01,27,04,25,-1.10
2012,01,27,04,26,-1.10
2012,01,27,04,27,-1.10
2012,01,27,04,28,-1.10
2012,01,27,04,29,-1.10
2012,01,27,04,30,-1.10
2012,01,27,04,31,-1.10
2012,01,27,04,32,-1.10
2012,01,27,04,33,-1.10
2012,01,27,04,34,-1.20
2012,01,27,04,35,-1.20
2012,01,27,04,36,-1.30
2012,01,27,04,37,-1.30
2012,01,27,04,38,-1.40
2012,01,27,04,39,-1.40
2012,01,27,04,40,-1.40
2012,01,27,04,41,-1.40
2012,01,27,04,42,-1.40
2012,01,27,04,43,-1.40
2012,01,27,04,44,-1.40
2012,01,27,04,45,-1.40
2012,01,27,04,46,-1.40
2012,01,27,04,47,-1.40
2012,01,27,04,48,-1.40
2012,01,27,04,49,-1.50
2012,01,27,04,50,-1.50
2012,01,27,04,51,-1.50
2012,01,27,04,52,-1.50
2012,01,27,04,53,-1.50
2012,01,27,04,54,-1.50
2012,01,27,04,55,-1.50
2012,01,27,04,56,-1.50
2012,01,27,04,57,-1.50
2012,01,27,04,58,-1.50
2012,01,27,04,59,-1.50
2012,01,27,05,00,-1.50
2012,01,27,05,01,-1.50
2012,01,27,05,02,-1.50
2012,01,27,05,03,-1.50
2012,01,27,05,04,-1.50
2012,01,27,05,05,-1.50
2012,01,27,05,06,-1.50
2012,01,27,05,07,-1.50
2012,01,27,05,08,-1.50
2012,01,27,05,09,-1.40
2012,01,27,05,10,-1.40
2012,01,27,05,11,-1.30
2012,01,27,05,12,-1.30
2012,01,27,05,13,-1.30
2012,01,27,05,14,-1.40
2012,01,27,05,15,-1.40
2012,01,27,05,16,-1.40
2012,01,27,05,17,-1.40
2012,01,27,05,18,-1.40
2012,01,27,05,19,-1.40
2012,01,27,05,20,-1.40
2012,01,27,05,21,-1.40
2012,01,27,05,22,-1.50
2012,01,27,05,23,-1.50
2012,01,27,05,24,-1.50
2012,01,27,05,25,-1.50
2012,01,27,05,26,-1.50
2012,01,27,05,27,-1.50
2012,01,27,05,28,-1.60
2012,01,27,05,29,-1.60
2012,01,27,05,30,-1.60
2012,01,27,05,31,-1.50
2012,01,27,05,32,-1.50
2012,01,27,05,33,-1.50
2012,01,27,05,34,-1.50
2012,01,27,05,35,-1.50
2012,01,27,05,36,-1.50
2012,01,27,05,37,-1.50
2012,01,27,05,38,-1.50
2012,01,27,05,39,-1.50
2012,01,27,05,40,-1.40
2012,01,27,05,41,-1.40
2012,01,27,05,42,-1.40
2012,01,27,05,43,-1.40
2012,01,27,05,44,-1.40
2012,01,27,05,45,-1.40
2012,01,27,05,46,-1.40
2012,01,27,05,47,-1.40
2012,01,27,05,48,-1.40
2012,01,27,05,49,-1.40
2012,01,27,05,50,-1.40
2012,01,27,05,51,-1.40
2012,01,27,05,52,-1.40
2012,01,27,05,53,-1.40
2012,01,27,05,54,-1.40
2012,01,27,05,55,-1.40
2012,01,27,05,56,-1.40
2012,01,27,05,57,-1.40
2012,01,27,05,58,-1.40
2012,01,27,05,59,-1.40
2012,01,27,06,00,-1.40
2012,01,27,06,01,-1.40
2012,01,27,06,02,-1.40
2012,01,27,06,03,-1.40
2012,01,27,06,04,-1.40
2012,01,27,06,05,-1.40
2012,01,27,06,06,-1.50
2012,01,27,06,07,-1.50
2012,01,27,06,08,-1.50
2012,01,27,06,09,-1.50
2012,01,27,06,10,-1.50
2012,01,27,06,11,-1.50
2012,01,27,06,12,-1.50
2012,01,27,06,13,-1.50
2012,01,27,06,14,-1.50
2012,01,27,06,15,-1.40
2012,01,27,06,16,-1.40
2012,01,27,06,17,-1.40
2012,01,27,06,18,-1.40
2012,01,27,06,19,-1.40
2012,01,27,06,20,-1.30
2012,01,27,06,21,-1.20
2012,01,27,06,22,-1.20
2012,01,27,06,23,-1.10
2012,01,27,06,24,-1.10
2012,01,27,06,25,-1.10
2012,01,27,06,26,-1.00
2012,01,27,06,27,-0.90
2012,01,27,06,28,-0.90
2012,01,27,06,29,-0.90
2012,01,27,06,30,-0.90
2012,01,27,06,31,-0.90
2012,01,27,06,32,-0.90
2012,01,27,06,33,-0.90
2012,01,27,06,34,-0.90
2012,01,27,06,35,-0.90
2012,01,27,06,36,-0.90
2012,01,27,06,37,-0.90
2012,01,27,06,38,-0.90
2012,01,27,06,39,-0.90
2012,01,27,06,40,-0.90
2012,01,27,06,41,-1.10
2012,01,27,06,42,-1.10
2012,01,27,06,43,-1.10
2012,01,27,06,44,-1.10
2012,01,27,06,45,-1.10
2012,01,27,06,46,-1.10
2012,01,27,06,47,-1.10
2012,01,27,06,48,-1.10
2012,01,27,06,49,-1.10
2012,01,27,06,50,-1.10
2012,01,27,06,51,-1.10
2012,01,27,06,52,-1.10
2012,01,27,06,53,-1.10
2012,01,27,06,54,-1.10
2012,01,27,06,55,-1.10
2012,01,27,06,56,-1.10
2012,01,27,06,57,-1.10
2012,01,27,06,58,-1.10
2012,01,27,06,59,-1.10
2012,01,27,07,00,-1.10
2012,01,27,07,01,-1.10
2012,01,27,07,02,-1.10
2012,01,27,07,03,-1.10
2012,01,27,07,04,-1.00
2012,01,27,07,05,-0.90
2012,01,27,07,06,-0.90
2012,01,27,07,07,-0.90
2012,01,27,07,08,-0.90
2012,01,27,07,09,-0.90
2012,01,27,07,10,-0.90
2012,01,27,07,11,-0.90
2012,01,27,07,12,-0.90
2012,01,27,07,13,-0.90
2012,01,27,07,14,-0.80
2012,01,27,07,15,-0.80
2012,01,27,07,16,-0.70
2012,01,27,07,17,-0.60
2012,01,27,07,18,-0.50
2012,01,27,07,19,-0.40
2012,01,27,07,20,-0.30
2012,01,27,07,21,-0.20
2012,01,27,07,22,-0.20
2012,01,27,07,23,-0.20
2012,01,27,07,24,-0.20
2012,01,27,07,25,-0.20
2012,01,27,07,26,-0.20
2012,01,27,07,27,-0.20
2012,01,27,07,28,-0.20
2012,01,27,07,29,-0.30
2012,01,27,07,30,-0.30
2012,01,27,07,31,-0.30
2012,01,27,07,32,-0.40
2012,01,27,07,33,-0.40
2012,01,27,07,34,-0.40
2012,01,27,07,35,-0.40
2012,01,27,07,36,-0.40
2012,01,27,07,37,-0.40
2012,01,27,07,38,-0.40
2012,01,27,07,39,-0.40
2012,01,27,07,40,-0.40
2012,01,27,07,41,-0.40
2012,01,27,07,42,-0.40
2012,01,27,07,43,-0.40
2012,01,27,07,44,-0.40
2012,01,27,07,45,-0.40
2012,01,27,07,46,-0.30
2012,01,27,07,47,-0.30
2012,01,27,07,48,-0.30
2012,01,27,07,49,-0.20
2012,01,27,07,50,-0.20
2012,01,27,07,51,-0.10
2012,01,27,07,52,-0.10
2012,01,27,07,53,-0.10
2012,01,27,07,54,-0.10
2012,01,27,07,55,-0.10
2012,01,27,07,56,-0.10
2012,01,27,07,57,-0.10
2012,01,27,07,58,-0.10
2012,01,27,07,59,-0.10
2012,01,27,08,00,-0.10
2012,01,27,08,01,-0.10
2012,01,27,08,02,-0.10
2012,01,27,08,03,-0.10
2012,01,27,08,04,-0.10
2012,01,27,08,05,-0.10
2012,01,27,08,06,0.00
2012,01,27,08,07,0.10
2012,01,27,08,08,0.10
2012,01,27,08,09,0.10
2012,01,27,08,10,0.10
2012,01,27,08,11,0.10
2012,01,27,08,12,0.10
2012,01,27,08,13,0.20
2012,01,27,08,14,0.20
2012,01,27,08,15,0.20
2012,01,27,08,16,0.30
2012,01,27,08,17,0.40
2012,01,27,08,18,0.40
2012,01,27,08,19,0.40
2012,01,27,08,20,0.40
2012,01,27,08,21,0.50
2012,01,27,08,22,0.60
2012,01,27,08,23,0.70
2012,01,27,08,24,0.70
2012,01,27,08,25,0.80
2012,01,27,08,26,0.80
2012,01,27,08,27,0.80
2012,01,27,08,28,0.80
2012,01,27,08,29,0.90
2012,01,27,08,30,1.00
2012,01,27,08,31,1.00
2012,01,27,08,32,1.10
2012,01,27,08,33,1.10
2012,01,27,08,34,1.20
2012,01,27,08,35,1.20
2012,01,27,08,36,1.20
2012,01,27,08,37,1.30
2012,01,27,08,38,1.30
2012,01,27,08,39,1.30
2012,01,27,08,40,1.30
2012,01,27,08,41,1.30
2012,01,27,08,42,1.30
2012,01,27,08,43,1.30
2012,01,27,08,44,1.40
2012,01,27,08,45,1.40
2012,01,27,08,46,1.40
2012,01,27,08,47,1.50
2012,01,27,08,48,1.60
2012,01,27,08,49,1.60
2012,01,27,08,50,1.70
2012,01,27,08,51,1.80
2012,01,27,08,52,1.90
2012,01,27,08,53,1.90
2012,01,27,08,54,2.00
2012,01,27,08,55,2.10
2012,01,27,08,56,2.10
2012,01,27,08,57,2.20
2012,01,27,08,58,2.20
2012,01,27,08,59,2.20
2012,01,27,09,00,2.20
2012,01,27,09,01,2.20
2012,01,27,09,02,2.30
2012,01,27,09,03,2.30
2012,01,27,09,04,2.40
2012,01,27,09,05,2.40
2012,01,27,09,06,2.50
2012,01,27,09,07,2.70
2012,01,27,09,08,2.80
2012,01,27,09,09,2.90
2012,01,27,09,10,3.00
2012,01,27,09,11,3.10
2012,01,27,09,12,3.20
2012,01,27,09,13,3.20
2012,01,27,09,14,3.30
2012,01,27,09,15,3.40
2012,01,27,09,16,3.50
2012,01,27,09,17,3.50
2012,01,27,09,18,3.60
2012,01,27,09,19,3.60
2012,01,27,09,20,3.70
2012,01,27,09,21,3.80
2012,01,27,09,22,3.80
2012,01,27,09,23,3.80
2012,01,27,09,24,3.90
2012,01,27,09,25,4.00
2012,01,27,09,26,4.00
2012,01,27,09,27,4.10
2012,01,27,09,28,4.10
2012,01,27,09,29,4.20
2012,01,27,09,30,4.20
2012,01,27,09,31,4.20
2012,01,27,09,32,4.30
2012,01,27,09,33,4.40
2012,01,27,09,34,4.50
2012,01,27,09,35,4.50
2012,01,27,09,36,4.50
2012,01,27,09,37,4.60
2012,01,27,09,38,4.60
2012,01,27,09,39,4.60
2012,01,27,09,40,4.60
2012,01,27,09,41,4.70
2012,01,27,09,42,4.70
2012,01,27,09,43,4.70
2012,01,27,09,44,4.80
2012,01,27,09,45,4.90
2012,01,27,09,46,5.00
2012,01,27,09,47,5.10
2012,01,27,09,48,5.10
2012,01,27,09,49,5.20
2012,01,27,09,50,5.30
2012,01,27,09,51,5.30
2012,01,27,09,52,5.30
2012,01,27,09,53,5.30
2012,01,27,09,54,5.30
2012,01,27,09,55,5.30
2012,01,27,09,56,5.30
2012,01,27,09,57,5.30
2012,01,27,09,58,5.40
2012,01,27,09,59,5.40
2012,01,27,10,00,5.40
2012,01,27,10,01,5.40
2012,01,27,10,02,5.40
2012,01,27,10,03,5.40
2012,01,27,10,04,5.30
2012,01,27,10,05,5.30
2012,01,27,10,06,5.30
2012,01,27,10,07,5.30
2012,01,27,10,08,5.30
2012,01,27,10,09,5.30
2012,01,27,10,10,5.30
2012,01,27,10,11,5.30
2012,01,27,10,12,5.30
2012,01,27,10,13,5.30
2012,01,27,10,14,5.30
2012,01,27,10,15,5.30
2012,01,27,10,16,5.30
2012,01,27,10,17,5.30
2012,01,27,10,18,5.30
2012,01,27,10,19,5.30
2012,01,27,10,20,5.30
2012,01,27,10,21,5.30
2012,01,27,10,22,5.40
2012,01,27,10,23,5.40
2012,01,27,10,24,5.40
2012,01,27,10,25,5.40
2012,01,27,10,26,5.40
2012,01,27,10,27,5.50
2012,01,27,10,28,5.50
2012,01,27,10,29,5.50
2012,01,27,10,30,5.50
2012,01,27,10,31,5.50
2012,01,27,10,32,5.50
2012,01,27,10,33,5.50
2012,01,27,10,34,5.40
2012,01,27,10,35,5.40
2012,01,27,10,36,5.40
2012,01,27,10,37,5.40
2012,01,27,10,38,5.40
2012,01,27,10,39,5.40
2012,01,27,10,40,5.40
2012,01,27,10,41,5.40
2012,01,27,10,42,5.40
2012,01,27,10,43,5.40
2012,01,27,10,44,5.40
2012,01,27,10,45,5.40
2012,01,27,10,46,5.50
2012,01,27,10,47,5.50
2012,01,27,10,48,5.60
2012,01,27,10,49,5.60
2012,01,27,10,50,5.70
2012,01,27,10,51,5.70
2012,01,27,10,52,5.70
2012,01,27,10,53,5.70
2012,01,27,10,54,5.70
2012,01,27,10,55,5.70
2012,01,27,10,56,5.80
2012,01,27,10,57,5.80
2012,01,27,10,58,5.90
2012,01,27,10,59,5.90
2012,01,27,11,00,5.90
2012,01,27,11,01,5.90
2012,01,27,11,02,6.00
2012,01,27,11,03,5.90
2012,01,27,11,04,5.90
2012,01,27,11,05,5.90
2012,01,27,11,06,6.00
2012,01,27,11,07,6.10
2012,01,27,11,08,6.10
2012,01,27,11,09,6.20
2012,01,27,11,10,6.20
2012,01,27,11,11,6.20
2012,01,27,11,12,6.20
2012,01,27,11,13,6.20
2012,01,27,11,14,6.20
2012,01,27,11,15,6.30
2012,01,27,11,16,6.30
2012,01,27,11,17,6.40
2012,01,27,11,18,6.30
2012,01,27,11,19,6.30
2012,01,27,11,20,6.30
2012,01,27,11,21,6.30
2012,01,27,11,22,6.20
2012,01,27,11,23,6.20
2012,01,27,11,24,6.20
2012,01,27,11,25,6.20
2012,01,27,11,26,6.30
2012,01,27,11,27,6.20
2012,01,27,11,28,6.30
2012,01,27,11,29,6.30
2012,01,27,11,30,6.20
2012,01,27,11,31,6.20
2012,01,27,11,32,6.10
2012,01,27,11,33,6.10
2012,01,27,11,34,6.10
2012,01,27,11,35,6.10
2012,01,27,11,36,6.10
2012,01,27,11,37,6.20
2012,01,27,11,38,6.20
2012,01,27,11,39,6.30
2012,01,27,11,40,6.40
2012,01,27,11,41,6.40
2012,01,27,11,42,6.40
2012,01,27,11,43,6.40
2012,01,27,11,44,6.40
2012,01,27,11,45,6.30
2012,01,27,11,46,6.30
2012,01,27,11,47,6.20
2012,01,27,11,48,6.20
2012,01,27,11,49,6.20
2012,01,27,11,50,6.30
2012,01,27,11,51,6.30
2012,01,27,11,52,6.30
2012,01,27,11,53,6.40
2012,01,27,11,54,6.40
2012,01,27,11,55,6.40
2012,01,27,11,56,6.40
2012,01,27,11,57,6.60
2012,01,27,11,58,6.40
2012,01,27,11,59,6.40
2012,01,27,12,00,6.40
2012,01,27,12,01,6.30
2012,01,27,12,02,6.20
2012,01,27,12,03,6.20
2012,01,27,12,04,6.30
2012,01,27,12,05,6.20
2012,01,27,12,06,6.20
2012,01,27,12,07,6.20
2012,01,27,12,08,6.20
2012,01,27,12,09,6.20
2012,01,27,12,10,6.20
2012,01,27,12,11,6.20
2012,01,27,12,12,6.20
2012,01,27,12,13,6.20
2012,01,27,12,14,6.10
2012,01,27,12,15,6.10
2012,01,27,12,16,6.20
2012,01,27,12,17,6.20
2012,01,27,12,18,6.20
2012,01,27,12,19,6.20
2012,01,27,12,20,6.20
2012,01,27,12,21,6.20
2012,01,27,12,22,6.20
2012,01,27,12,23,6.20
2012,01,27,12,24,6.20
2012,01,27,12,25,6.20
2012,01,27,12,26,6.20
2012,01,27,12,27,6.20
2012,01,27,12,28,6.20
2012,01,27,12,29,6.20
2012,01,27,12,30,6.20
2012,01,27,12,31,6.20
2012,01,27,12,32,6.20
2012,01,27,12,33,6.10
2012,01,27,12,34,6.10
2012,01,27,12,35,6.20
2012,01,27,12,36,6.20
2012,01,27,12,37,6.20
2012,01,27,12,38,6.20
2012,01,27,12,39,6.20
2012,01,27,12,40,6.30
2012,01,27,12,41,6.20
2012,01,27,12,42,6.30
2012,01,27,12,43,6.30
2012,01,27,12,44,6.40
2012,01,27,12,45,6.40
2012,01,27,12,46,6.40
2012,01,27,12,47,6.50
2012,01,27,12,48,6.60
2012,01,27,12,49,6.60
2012,01,27,12,50,6.70
2012,01,27,12,51,6.80
2012,01,27,12,52,6.80
2012,01,27,12,53,6.90
2012,01,27,12,54,7.00
2012,01,27,12,55,7.10
2012,01,27,12,56,7.20
2012,01,27,12,57,7.30
2012,01,27,12,58,7.30
2012,01,27,12,59,7.20
2012,01,27,13,00,7.20
2012,01,27,13,01,7.20
2012,01,27,13,02,7.10
2012,01,27,13,03,7.10
2012,01,27,13,04,7.20
2012,01,27,13,05,7.20
2012,01,27,13,06,7.20
2012,01,27,13,07,7.10
2012,01,27,13,08,7.00
2012,01,27,13,09,7.00
2012,01,27,13,10,7.00
2012,01,27,13,11,7.00
2012,01,27,13,12,6.90
2012,01,27,13,13,6.80
2012,01,27,13,14,6.80
2012,01,27,13,15,6.80
2012,01,27,13,16,6.80
2012,01,27,13,17,6.90
2012,01,27,13,18,6.90
2012,01,27,13,19,7.00
2012,01,27,13,20,7.00
2012,01,27,13,21,7.00
2012,01,27,13,22,7.00
2012,01,27,13,23,7.10
2012,01,27,13,24,7.10
2012,01,27,13,25,7.20
2012,01,27,13,26,7.20
2012,01,27,13,27,7.10
2012,01,27,13,28,7.00
2012,01,27,13,29,6.90
2012,01,27,13,30,6.90
2012,01,27,13,31,6.90
2012,01,27,13,32,6.90
2012,01,27,13,33,6.90
2012,01,27,13,34,6.90
2012,01,27,13,35,6.90
2012,01,27,13,36,6.90
2012,01,27,13,37,6.80
2012,01,27,13,38,6.80
2012,01,27,13,39,6.80
2012,01,27,13,40,6.80
2012,01,27,13,41,6.80
2012,01,27,13,42,6.70
2012,01,27,13,43,6.70
2012,01,27,13,44,6.60
2012,01,27,13,45,6.60
2012,01,27,13,46,6.60
2012,01,27,13,47,6.60
2012,01,27,13,48,6.60
2012,01,27,13,49,6.60
2012,01,27,13,50,6.60
2012,01,27,13,51,6.60
2012,01,27,13,52,6.60
2012,01,27,13,53,6.60
2012,01,27,13,54,6.60
2012,01,27,13,55,6.70
2012,01,27,13,56,6.70
2012,01,27,13,57,6.80
2012,01,27,13,58,6.80
2012,01,27,13,59,6.90
2012,01,27,14,00,6.90
2012,01,27,14,01,6.90
2012,01,27,14,02,6.90
2012,01,27,14,03,7.00
2012,01,27,14,04,7.00
2012,01,27,14,05,7.00
2012,01,27,14,06,6.90
2012,01,27,14,07,6.90
2012,01,27,14,08,6.90
2012,01,27,14,09,6.90
2012,01,27,14,10,6.90
2012,01,27,14,11,6.90
2012,01,27,14,12,6.80
2012,01,27,14,13,6.80
2012,01,27,14,14,6.80
2012,01,27,14,15,6.80
2012,01,27,14,16,6.80
2012,01,27,14,17,6.80
2012,01,27,14,18,6.80
2012,01,27,14,19,6.80
2012,01,27,14,20,6.80
2012,01,27,14,21,6.70
2012,01,27,14,22,6.70
2012,01,27,14,23,6.70
2012,01,27,14,24,6.70
2012,01,27,14,25,6.70
2012,01,27,14,26,6.70
2012,01,27,14,27,6.80
2012,01,27,14,28,6.80
2012,01,27,14,29,6.80
2012,01,27,14,30,6.80
2012,01,27,14,31,6.80
2012,01,27,14,32,6.80
2012,01,27,14,33,6.80
2012,01,27,14,34,6.90
2012,01,27,14,35,6.90
2012,01,27,14,36,6.90
2012,01,27,14,37,7.00
2012,01,27,14,38,7.00
2012,01,27,14,39,7.10
2012,01,27,14,40,7.10
2012,01,27,14,41,7.10
2012,01,27,14,42,7.10
2012,01,27,14,43,7.10
2012,01,27,14,44,7.10
2012,01,27,14,45,7.10
2012,01,27,14,46,7.00
2012,01,27,14,47,7.00
2012,01,27,14,48,7.00
2012,01,27,14,49,7.00
2012,01,27,14,50,7.00
2012,01,27,14,51,7.00
2012,01,27,14,52,7.00
2012,01,27,14,53,7.00
2012,01,27,14,54,7.00
2012,01,27,14,55,7.00
2012,01,27,14,56,7.00
2012,01,27,14,57,7.00
2012,01,27,14,58,7.10
2012,01,27,14,59,7.10
2012,01,27,15,00,7.10
2012,01,27,15,01,7.20
2012,01,27,15,02,7.20
2012,01,27,15,03,7.20
2012,01,27,15,04,7.10
2012,01,27,15,05,7.10
2012,01,27,15,06,7.10
2012,01,27,15,07,7.10
2012,01,27,15,08,7.00
2012,01,27,15,09,7.00
2012,01,27,15,10,6.90
2012,01,27,15,11,6.90
2012,01,27,15,12,6.80
2012,01,27,15,13,6.80
2012,01,27,15,14,6.80
2012,01,27,15,15,6.80
2012,01,27,15,16,6.80
2012,01,27,15,17,6.80
2012,01,27,15,18,6.70
2012,01,27,15,19,6.70
2012,01,27,15,20,6.70
2012,01,27,15,21,6.70
2012,01,27,15,22,6.70
2012,01,27,15,23,6.80
2012,01,27,15,24,6.70
2012,01,27,15,25,6.70
2012,01,27,15,26,6.70
2012,01,27,15,27,6.70
2012,01,27,15,28,6.70
2012,01,27,15,29,6.70
2012,01,27,15,30,6.70
2012,01,27,15,31,6.60
2012,01,27,15,32,6.60
2012,01,27,15,33,6.60
2012,01,27,15,34,6.60
2012,01,27,15,35,6.60
2012,01,27,15,36,6.60
2012,01,27,15,37,6.60
2012,01,27,15,38,6.60
2012,01,27,15,39,6.60
2012,01,27,15,40,6.60
2012,01,27,15,41,6.60
2012,01,27,15,42,6.60
2012,01,27,15,43,6.60
2012,01,27,15,44,6.60
2012,01,27,15,45,6.60
2012,01,27,15,46,6.60
2012,01,27,15,47,6.60
2012,01,27,15,48,6.60
2012,01,27,15,49,6.50
2012,01,27,15,50,6.40
2012,01,27,15,51,6.40
2012,01,27,15,52,6.40
2012,01,27,15,53,6.40
2012,01,27,15,54,6.40
2012,01,27,15,55,6.40
2012,01,27,15,56,6.40
2012,01,27,15,57,6.30
2012,01,27,15,58,6.30
2012,01,27,15,59,6.30
2012,01,27,16,00,6.30
2012,01,27,16,01,6.30
2012,01,27,16,02,6.20
2012,01,27,16,03,6.20
2012,01,27,16,04,6.20
2012,01,27,16,05,6.20
2012,01,27,16,06,6.20
2012,01,27,16,07,6.20
2012,01,27,16,08,6.20
2012,01,27,16,09,6.20
2012,01,27,16,10,6.10
2012,01,27,16,11,6.10
2012,01,27,16,12,6.10
2012,01,27,16,13,6.00
2012,01,27,16,14,6.00
2012,01,27,16,15,6.00
2012,01,27,16,16,6.00
2012,01,27,16,17,6.00
2012,01,27,16,18,5.90
2012,01,27,16,19,5.90
2012,01,27,16,20,5.90
2012,01,27,16,21,5.90
2012,01,27,16,22,5.80
2012,01,27,16,23,5.80
2012,01,27,16,24,5.80
2012,01,27,16,25,5.80
2012,01,27,16,26,5.70
2012,01,27,16,27,5.70
2012,01,27,16,28,5.70
2012,01,27,16,29,5.70
2012,01,27,16,30,5.70
2012,01,27,16,31,5.70
2012,01,27,16,32,5.70
2012,01,27,16,33,5.70
2012,01,27,16,34,5.70
2012,01,27,16,35,5.60
2012,01,27,16,36,5.60
2012,01,27,16,37,5.60
2012,01,27,16,38,5.60
2012,01,27,16,39,5.50
2012,01,27,16,40,5.50
2012,01,27,16,41,5.40
2012,01,27,16,42,5.30
2012,01,27,16,43,5.30
2012,01,27,16,44,5.20
2012,01,27,16,45,5.10
2012,01,27,16,46,5.10
2012,01,27,16,47,5.10
2012,01,27,16,48,5.10
2012,01,27,16,49,5.10
2012,01,27,16,50,5.10
2012,01,27,16,51,5.10
2012,01,27,16,52,5.00
2012,01,27,16,53,4.90
2012,01,27,16,54,4.90
2012,01,27,16,55,4.90
2012,01,27,16,56,4.90
2012,01,27,16,57,4.80
2012,01,27,16,58,4.80
2012,01,27,16,59,4.70
2012,01,27,17,00,4.60
2012,01,27,17,01,4.50
2012,01,27,17,02,4.50
2012,01,27,17,03,4.40
2012,01,27,17,04,4.40
2012,01,27,17,05,4.30
2012,01,27,17,06,4.30
2012,01,27,17,07,4.20
2012,01,27,17,08,4.20
2012,01,27,17,09,4.20
2012,01,27,17,10,4.10
2012,01,27,17,11,4.00
2012,01,27,17,12,3.90
2012,01,27,17,13,3.80
2012,01,27,17,14,3.80
2012,01,27,17,15,3.70
2012,01,27,17,16,3.60
2012,01,27,17,17,3.60
2012,01,27,17,18,3.50
2012,01,27,17,19,3.40
2012,01,27,17,20,3.40
2012,01,27,17,21,3.40
2012,01,27,17,22,3.30
2012,01,27,17,23,3.30
2012,01,27,17,24,3.30
2012,01,27,17,25,3.30
2012,01,27,17,26,3.20
2012,01,27,17,27,3.20
2012,01,27,17,28,3.10
2012,01,27,17,29,3.10
2012,01,27,17,30,3.10
2012,01,27,17,31,3.10
2012,01,27,17,32,3.00
2012,01,27,17,33,2.90
2012,01,27,17,34,2.90
2012,01,27,17,35,2.90
2012,01,27,17,36,2.90
2012,01,27,17,37,2.90
2012,01,27,17,38,2.90
2012,01,27,17,39,2.80
2012,01,27,17,40,2.80
2012,01,27,17,41,2.80
2012,01,27,17,42,2.80
2012,01,27,17,43,2.70
2012,01,27,17,44,2.70
2012,01,27,17,45,2.70